Time,TemperatureF,DewpointF,PressureIn,WindDirection,WindDirectionDegrees,WindSpeedMPH,WindSpeedGustMPH,Humidity,HourlyPrecipIn,Conditions,Clouds,dailyrainin,SoftwareType,DateUTC
2013-03-24 00:00:00,37.0,-99.9,-100.00,WSW,252,2.0,-999.0,-999,-99.99,,,-99.99,,2013-03-24 07:00:00,
2013-03-24 00:02:00,37.0,-99.9,-100.00,West,265,3.0,-999.0,-999,-99.99,,,-99.99,,2013-03-24 07:02:00,
2013-03-24 00:12:00,37.0,-99.9,-100.00,West,265,3.0,-999.0,-999,-99.99,,,-99.99,,2013-03-24 07:12:00,
2013-03-24 01:20:00,35.0,-99.9,-100.00,West,261,5.0,-999.0,-999,-99.99,,,-99.99,,2013-03-24 08:20:00,
2013-03-24 02:02:00,35.0,-99.9,-100.00,West,261,5.0,-999.0,-999,-99.99,,,-99.99,,2013-03-24 09:02:00,
2013-03-24 02:12:00,35.0,-99.9,-100.00,West,261,5.0,-999.0,-999,-99.99,,,-99.99,,2013-03-24 09:12:00,
2013-03-24 02:20:00,35.0,-99.9,-100.00,WSW,251,3.0,-999.0,-999,-99.99,,,-99.99,,2013-03-24 09:20:00,
2013-03-24 03:03:00,35.0,-99.9,-100.00,WSW,251,3.0,-999.0,-999,-99.99,,,-99.99,,2013-03-24 10:03:00,
2013-03-24 03:13:00,35.0,-99.9,-100.00,WSW,251,3.0,-999.0,-999,-99.99,,,-99.99,,2013-03-24 10:13:00,
2013-03-24 03:20:00,33.0,-99.9,-100.00,West,262,5.0,-999.0,-999,-99.99,,,-99.99,,2013-03-24 10:20:00,
2013-03-24 04:03:00,33.0,-99.9,-100.00,West,262,5.0,-999.0,-999,-99.99,,,-99.99,,2013-03-24 11:03:00,
2013-03-24 04:12:00,33.0,-99.9,-100.00,West,262,5.0,-999.0,-999,-99.99,,,-99.99,,2013-03-24 11:12:00,
2013-03-24 04:20:00,34.0,-99.9,-100.00,West,267,5.0,-999.0,-999,-99.99,,,-99.99,,2013-03-24 11:20:00,
2013-03-24 05:03:00,34.0,-99.9,-100.00,West,267,5.0,-999.0,-999,-99.99,,,-99.99,,2013-03-24 12:03:00,
2013-03-24 05:13:00,34.0,-99.9,-100.00,West,267,5.0,-999.0,-999,-99.99,,,-99.99,,2013-03-24 12:13:00,
2013-03-24 05:20:00,33.0,-99.9,-100.00,WSW,237,2.0,-999.0,-999,-99.99,,,-99.99,,2013-03-24 12:20:00,
2013-03-24 06:03:00,33.0,-99.9,-100.00,WSW,237,2.0,-999.0,-999,-99.99,,,-99.99,,2013-03-24 13:03:00,
2013-03-24 06:13:00,33.0,-99.9,-100.00,WSW,237,2.0,-999.0,-999,-99.99,,,-99.99,,2013-03-24 13:13:00,
2013-03-24 06:20:00,34.0,-99.9,-100.00,WNW,289,5.0,-999.0,-999,-99.99,,,-99.99,,2013-03-24 13:20:00,
2013-03-24 07:03:00,34.0,-99.9,-100.00,WNW,289,5.0,-999.0,-999,-99.99,,,-99.99,,2013-03-24 14:03:00,
2013-03-24 07:13:00,34.0,-99.9,-100.00,WNW,289,5.0,-999.0,-999,-99.99,,,-99.99,,2013-03-24 14:13:00,
2013-03-24 07:20:00,34.0,-99.9,-100.00,WSW,258,3.0,-999.0,-999,-99.99,,,-99.99,,2013-03-24 14:20:00,
2013-03-24 08:02:00,34.0,-99.9,-100.00,WSW,258,3.0,-999.0,-999,-99.99,,,-99.99,,2013-03-24 15:02:00,
2013-03-24 08:13:00,34.0,-99.9,-100.00,WSW,258,3.0,-999.0,-999,-99.99,,,-99.99,,2013-03-24 15:13:00,
2013-03-24 08:20:00,37.0,-99.9,-100.00,West,281,3.0,-999.0,-999,-99.99,,,-99.99,,2013-03-24 15:20:00,
2013-03-24 09:03:00,37.0,-99.9,-100.00,West,281,3.0,-999.0,-999,-99.99,,,-99.99,,2013-03-24 16:03:00,
2013-03-24 09:13:00,37.0,-99.9,-100.00,West,281,3.0,-999.0,-999,-99.99,,,-99.99,,2013-03-24 16:13:00,
2013-03-24 09:20:00,40.0,-99.9,-100.00,SW,219,1.0,-999.0,-999,-99.99,,,-99.99,,2013-03-24 16:20:00,
2013-03-24 10:03:00,40.0,-99.9,-100.00,SW,219,1.0,-999.0,-999,-99.99,,,-99.99,,2013-03-24 17:03:00,
2013-03-24 10:12:00,40.0,-99.9,-100.00,SW,219,1.0,-999.0,-999,-99.99,,,-99.99,,2013-03-24 17:12:00,
2013-03-24 10:20:00,41.0,-99.9,-100.00,SSE,166,3.0,-999.0,-999,-99.99,,,-99.99,,2013-03-24 17:20:00,
2013-03-24 11:03:00,41.0,-99.9,-100.00,SSE,166,3.0,-999.0,-999,-99.99,,,-99.99,,2013-03-24 18:03:00,
2013-03-24 11:13:00,41.0,-99.9,-100.00,SSE,166,3.0,-999.0,-999,-99.99,,,-99.99,,2013-03-24 18:13:00,
2013-03-24 11:20:00,44.0,-99.9,-100.00,ENE,76,2.0,-999.0,-999,-99.99,,,-99.99,,2013-03-24 18:20:00,
2013-03-24 12:03:00,44.0,-99.9,-100.00,ENE,76,2.0,-999.0,-999,-99.99,,,-99.99,,2013-03-24 19:03:00,
2013-03-24 12:12:00,44.0,-99.9,-100.00,ENE,76,2.0,-999.0,-999,-99.99,,,-99.99,,2013-03-24 19:12:00,
2013-03-24 12:20:00,46.0,-99.9,-100.00,NNE,24,7.0,-999.0,-999,-99.99,,,-99.99,,2013-03-24 19:20:00,
2013-03-24 13:03:00,46.0,-99.9,-100.00,NNE,24,7.0,-999.0,-999,-99.99,,,-99.99,,2013-03-24 20:03:00,
2013-03-24 13:13:00,46.0,-99.9,-100.00,NNE,24,7.0,-999.0,-999,-99.99,,,-99.99,,2013-03-24 20:13:00,
2013-03-24 13:20:00,47.0,-99.9,-100.00,NNE,24,7.0,-999.0,-999,-99.99,,,-99.99,,2013-03-24 20:20:00,
2013-03-24 14:03:00,47.0,-99.9,-100.00,NNE,24,7.0,-999.0,-999,-99.99,,,-99.99,,2013-03-24 21:03:00,
2013-03-24 14:12:00,47.0,-99.9,-100.00,NNE,24,7.0,-999.0,-999,-99.99,,,-99.99,,2013-03-24 21:12:00,
2013-03-24 14:20:00,51.0,-99.9,-100.00,East,82,5.0,-999.0,-999,-99.99,,,-99.99,,2013-03-24 21:20:00,
2013-03-24 15:03:00,51.0,-99.9,-100.00,East,82,5.0,-999.0,-999,-99.99,,,-99.99,,2013-03-24 22:03:00,
2013-03-24 15:13:00,51.0,-99.9,-100.00,East,82,5.0,-999.0,-999,-99.99,,,-99.99,,2013-03-24 22:13:00,
2013-03-24 15:20:00,51.0,-99.9,-100.00,East,89,6.0,-999.0,-999,-99.99,,,-99.99,,2013-03-24 22:20:00,
2013-03-24 16:03:00,51.0,-99.9,-100.00,East,89,6.0,-999.0,-999,-99.99,,,-99.99,,2013-03-24 23:03:00,
2013-03-24 16:12:00,51.0,-99.9,-100.00,East,89,6.0,-999.0,-999,-99.99,,,-99.99,,2013-03-24 23:12:00,
2013-03-24 16:20:00,52.0,-99.9,-100.00,ESE,107,5.0,-999.0,-999,-99.99,,,-99.99,,2013-03-24 23:20:00,
2013-03-24 17:02:00,52.0,-99.9,-100.00,ESE,107,5.0,-999.0,-999,-99.99,,,-99.99,,2013-03-25 00:02:00,
2013-03-24 17:12:00,52.0,-99.9,-100.00,ESE,107,5.0,-999.0,-999,-99.99,,,-99.99,,2013-03-25 00:12:00,
2013-03-24 17:20:00,53.0,-99.9,-100.00,East,99,2.0,-999.0,-999,-99.99,,,-99.99,,2013-03-25 00:20:00,
2013-03-24 18:02:00,53.0,-99.9,-100.00,East,99,2.0,-999.0,-999,-99.99,,,-99.99,,2013-03-25 01:02:00,
2013-03-24 18:12:00,53.0,-99.9,-100.00,East,99,2.0,-999.0,-999,-99.99,,,-99.99,,2013-03-25 01:12:00,
2013-03-24 18:20:00,54.0,-99.9,-100.00,SSW,193,3.0,-999.0,-999,-99.99,,,-99.99,,2013-03-25 01:20:00,
2013-03-24 19:02:00,54.0,-99.9,-100.00,SSW,193,3.0,-999.0,-999,-99.99,,,-99.99,,2013-03-25 02:02:00,
2013-03-24 19:12:00,54.0,-99.9,-100.00,SSW,193,3.0,-999.0,-999,-99.99,,,-99.99,,2013-03-25 02:12:00,
2013-03-24 19:20:00,51.0,-99.9,-100.00,West,271,2.0,-999.0,-999,-99.99,,,-99.99,,2013-03-25 02:20:00,
2013-03-24 20:03:00,51.0,-99.9,-100.00,West,271,2.0,-999.0,-999,-99.99,,,-99.99,,2013-03-25 03:03:00,
2013-03-24 20:13:00,51.0,-99.9,-100.00,West,271,2.0,-999.0,-999,-99.99,,,-99.99,,2013-03-25 03:13:00,
2013-03-24 20:20:00,47.0,-99.9,-100.00,WSW,250,1.0,-999.0,-999,-99.99,,,-99.99,,2013-03-25 03:20:00,
2013-03-24 21:03:00,47.0,-99.9,-100.00,WSW,250,1.0,-999.0,-999,-99.99,,,-99.99,,2013-03-25 04:03:00,
2013-03-24 21:13:00,47.0,-99.9,-100.00,WSW,250,1.0,-999.0,-999,-99.99,,,-99.99,,2013-03-25 04:13:00,
2013-03-24 21:20:00,45.0,-99.9,-100.00,West,262,2.0,-999.0,-999,-99.99,,,-99.99,,2013-03-25 04:20:00,
2013-03-24 22:03:00,45.0,-99.9,-100.00,West,262,2.0,-999.0,-999,-99.99,,,-99.99,,2013-03-25 05:03:00,
2013-03-24 22:12:00,45.0,-99.9,-100.00,West,262,2.0,-999.0,-999,-99.99,,,-99.99,,2013-03-25 05:12:00,
2013-03-24 22:20:00,43.0,-99.9,-100.00,WNW,292,2.0,-999.0,-999,-99.99,,,-99.99,,2013-03-25 05:20:00,
2013-03-24 23:02:00,43.0,-99.9,-100.00,WNW,292,2.0,-999.0,-999,-99.99,,,-99.99,,2013-03-25 06:02:00,
2013-03-24 23:12:00,43.0,-99.9,-100.00,WNW,292,2.0,-999.0,-999,-99.99,,,-99.99,,2013-03-25 06:12:00,
2013-03-24 23:20:00,43.0,-99.9,-100.00,West,267,1.0,-999.0,-999,-99.99,,,-99.99,,2013-03-25 06:20:00,